Precipitable_Water
0.22 0.23 0.24 0.25 0.26 0.30 0.29 0.28 0.24 0.24 0.26 0.28 0.32 0.38 0.43 0.49 0.53 0.53 0.54 0.56 0.56 0.54 0.55 0.58 0.60 0.56 0.54 0.56 0.58 0.61 0.61 0.61 0.62 0.61 0.57 0.58 0.56 0.48 0.37 0.29 0.25 0.18 0.17 0.18
0.22 0.25 0.25 0.24 0.27 0.31 0.30 0.29 0.27 0.27 0.25 0.35 0.36 0.41 0.45 0.48 0.50 0.51 0.53 0.54 0.57 0.60 0.59 0.59 0.54 0.51 0.53 0.54 0.57 0.59 0.60 0.60 0.59 0.56 0.53 0.50 0.40 0.31 0.27 0.21 0.16 0.16 0.17 0.18
0.21 0.27 0.28 0.23 0.28 0.29 0.29 0.30 0.27 0.22 0.25 0.33 0.33 0.40 0.44 0.46 0.49 0.51 0.55 0.58 0.61 0.60 0.58 0.54 0.52 0.53 0.53 0.55 0.59 0.59 0.58 0.56 0.53 0.48 0.41 0.35 0.29 0.26 0.17 0.14 0.15 0.16 0.17 0.18
0.22 0.24 0.14 0.22 0.30 0.31 0.29 0.29 0.31 0.30 0.30 0.33 0.36 0.40 0.46 0.55 0.54 0.55 0.55 0.57 0.57 0.57 0.54 0.51 0.53 0.55 0.56 0.58 0.57 0.54 0.51 0.47 0.42 0.38 0.31 0.28 0.25 0.16 0.13 0.15 0.15 0.16 0.17 0.19
0.24 0.21 0.21 0.23 0.28 0.27 0.25 0.23 0.31 0.29 0.31 0.35 0.41 0.44 0.47 0.57 0.58 0.56 0.57 0.59 0.59 0.58 0.52 0.52 0.53 0.54 0.55 0.54 0.52 0.46 0.42 0.39 0.35 0.31 0.28 0.25 0.15 0.13 0.14 0.15 0.16 0.17 0.19 0.19
0.30 0.21 0.16 0.23 0.28 0.33 0.32 0.21 0.31 0.33 0.32 0.34 0.40 0.33 0.41 0.53 0.56 0.57 0.60 0.60 0.58 0.52 0.51 0.51 0.50 0.50 0.49 0.46 0.44 0.41 0.38 0.34 0.31 0.29 0.25 0.17 0.14 0.14 0.14 0.15 0.17 0.18 0.18 0.19
0.34 0.28 0.26 0.33 0.33 0.36 0.20 0.21 0.36 0.38 0.38 0.39 0.37 0.42 0.51 0.55 0.55 0.59 0.59 0.59 0.56 0.50 0.49 0.48 0.46 0.46 0.44 0.44 0.41 0.39 0.36 0.33 0.30 0.28 0.19 0.15 0.15 0.15 0.15 0.16 0.17 0.18 0.18 0.19
0.38 0.32 0.24 0.42 0.40 0.28 0.30 0.33 0.36 0.41 0.44 0.43 0.45 0.48 0.54 0.55 0.54 0.56 0.56 0.56 0.51 0.48 0.46 0.44 0.44 0.44 0.44 0.42 0.40 0.38 0.34 0.32 0.30 0.23 0.17 0.16 0.15 0.15 0.16 0.17 0.17 0.18 0.18 0.19
0.42 0.36 0.45 0.47 0.42 0.43 0.41 0.37 0.38 0.44 0.48 0.48 0.46 0.47 0.53 0.55 0.53 0.53 0.54 0.53 0.47 0.48 0.44 0.42 0.43 0.43 0.42 0.42 0.40 0.37 0.33 0.31 0.28 0.20 0.17 0.17 0.16 0.15 0.16 0.18 0.17 0.18 0.18 0.18
0.40 0.42 0.46 0.50 0.55 0.54 0.48 0.45 0.45 0.47 0.49 0.49 0.46 0.50 0.52 0.55 0.54 0.51 0.51 0.47 0.48 0.47 0.42 0.41 0.42 0.42 0.42 0.42 0.40 0.36 0.32 0.30 0.25 0.19 0.17 0.16 0.16 0.16 0.17 0.17 0.18 0.18 0.19 0.18
0.43 0.48 0.49 0.52 0.55 0.55 0.52 0.48 0.50 0.51 0.52 0.48 0.49 0.50 0.52 0.53 0.54 0.49 0.48 0.48 0.48 0.46 0.41 0.41 0.41 0.41 0.42 0.42 0.39 0.35 0.32 0.30 0.23 0.19 0.17 0.17 0.17 0.17 0.17 0.19 0.20 0.19 0.20 0.19
0.44 0.51 0.48 0.54 0.59 0.58 0.52 0.50 0.51 0.52 0.52 0.53 0.51 0.51 0.53 0.53 0.51 0.51 0.50 0.49 0.47 0.44 0.42 0.41 0.41 0.41 0.41 0.41 0.38 0.34 0.32 0.29 0.23 0.19 0.18 0.17 0.17 0.17 0.21 0.21 0.22 0.23 0.23 0.21
0.57 0.66 0.62 0.60 0.63 0.63 0.56 0.56 0.55 0.56 0.54 0.54 0.55 0.54 0.53 0.51 0.49 0.53 0.52 0.50 0.47 0.43 0.42 0.41 0.41 0.40 0.41 0.40 0.37 0.34 0.32 0.28 0.23 0.21 0.19 0.18 0.17 0.17 0.17 0.20 0.21 0.23 0.22 0.20
0.65 0.56 0.53 0.64 0.56 0.60 0.58 0.61 0.62 0.61 0.60 0.59 0.56 0.56 0.54 0.50 0.51 0.53 0.51 0.50 0.47 0.44 0.42 0.42 0.41 0.41 0.41 0.40 0.36 0.34 0.31 0.26 0.23 0.20 0.20 0.18 0.18 0.18 0.19 0.18 0.18 0.20 0.21 0.19
0.33 0.48 0.47 0.59 0.67 0.66 0.64 0.65 0.62 0.61 0.60 0.61 0.60 0.56 0.55 0.50 0.51 0.53 0.53 0.51 0.47 0.45 0.42 0.41 0.41 0.41 0.42 0.39 0.35 0.32 0.29 0.25 0.22 0.21 0.20 0.20 0.20 0.19 0.18 0.18 0.18 0.18 0.18 0.18
0.33 0.44 0.49 0.58 0.63 0.64 0.70 0.65 0.62 0.62 0.63 0.64 0.61 0.59 0.56 0.55 0.54 0.54 0.54 0.51 0.46 0.42 0.42 0.42 0.42 0.44 0.43 0.40 0.35 0.32 0.28 0.25 0.23 0.22 0.21 0.21 0.20 0.19 0.18 0.18 0.19 0.18 0.18 0.17
0.36 0.39 0.47 0.53 0.58 0.61 0.63 0.72 0.67 0.63 0.66 0.68 0.64 0.62 0.60 0.59 0.57 0.55 0.55 0.53 0.50 0.48 0.46 0.44 0.44 0.46 0.44 0.40 0.35 0.32 0.28 0.26 0.24 0.23 0.22 0.21 0.20 0.19 0.19 0.19 0.19 0.19 0.18 0.18
0.33 0.41 0.52 0.48 0.45 0.48 0.52 0.59 0.70 0.68 0.68 0.71 0.73 0.67 0.62 0.60 0.57 0.56 0.55 0.53 0.51 0.48 0.47 0.46 0.46 0.47 0.45 0.41 0.37 0.32 0.29 0.26 0.25 0.23 0.22 0.21 0.20 0.20 0.20 0.19 0.19 0.18 0.18 0.18
0.37 0.34 0.37 0.39 0.36 0.43 0.48 0.54 0.66 0.72 0.71 0.74 0.77 0.67 0.65 0.63 0.59 0.58 0.55 0.53 0.50 0.47 0.46 0.47 0.47 0.47 0.44 0.41 0.37 0.32 0.29 0.27 0.25 0.23 0.22 0.21 0.21 0.21 0.20 0.18 0.18 0.18 0.17 0.16
0.42 0.43 0.41 0.40 0.48 0.50 0.48 0.53 0.65 0.66 0.69 0.77 0.78 0.71 0.65 0.65 0.62 0.59 0.57 0.53 0.51 0.48 0.49 0.49 0.48 0.48 0.45 0.40 0.36 0.34 0.31 0.27 0.24 0.22 0.22 0.21 0.21 0.20 0.19 0.18 0.17 0.16 0.15 0.14
0.46 0.44 0.45 0.49 0.50 0.53 0.52 0.53 0.60 0.69 0.71 0.79 0.72 0.72 0.69 0.65 0.62 0.58 0.54 0.51 0.50 0.49 0.49 0.49 0.48 0.47 0.43 0.38 0.39 0.35 0.29 0.26 0.24 0.22 0.21 0.20 0.20 0.19 0.18 0.17 0.16 0.15 0.13 0.12
0.50 0.49 0.50 0.50 0.46 0.49 0.56 0.51 0.55 0.61 0.68 0.69 0.68 0.69 0.69 0.62 0.59 0.58 0.58 0.54 0.53 0.52 0.50 0.48 0.48 0.45 0.41 0.43 0.38 0.32 0.28 0.25 0.23 0.22 0.21 0.20 0.19 0.18 0.17 0.16 0.15 0.13 0.13 0.11
0.50 0.48 0.47 0.43 0.42 0.45 0.55 0.58 0.55 0.57 0.64 0.67 0.68 0.68 0.63 0.62 0.59 0.55 0.55 0.58 0.56 0.53 0.51 0.49 0.47 0.43 0.46 0.40 0.35 0.30 0.26 0.24 0.23 0.22 0.21 0.20 0.18 0.17 0.16 0.15 0.14 0.13 0.11 0.11
0.47 0.48 0.45 0.44 0.43 0.43 0.44 0.54 0.57 0.54 0.55 0.62 0.65 0.68 0.68 0.62 0.60 0.57 0.57 0.59 0.58 0.55 0.52 0.50 0.45 0.48 0.43 0.37 0.32 0.28 0.25 0.24 0.22 0.21 0.20 0.19 0.18 0.17 0.15 0.14 0.13 0.12 0.11 0.10
0.43 0.44 0.44 0.43 0.40 0.39 0.43 0.48 0.55 0.55 0.54 0.54 0.60 0.63 0.59 0.66 0.60 0.59 0.57 0.59 0.57 0.54 0.53 0.48 0.50 0.44 0.37 0.32 0.29 0.26 0.24 0.23 0.21 0.20 0.19 0.18 0.17 0.15 0.15 0.14 0.13 0.11 0.10 0.10
0.40 0.41 0.43 0.44 0.43 0.43 0.44 0.47 0.49 0.53 0.53 0.51 0.53 0.58 0.60 0.63 0.63 0.55 0.57 0.59 0.55 0.54 0.52 0.52 0.43 0.38 0.33 0.29 0.27 0.25 0.23 0.21 0.20 0.19 0.18 0.17 0.16 0.15 0.14 0.13 0.12 0.11 0.10 0.09
0.41 0.41 0.41 0.42 0.45 0.45 0.45 0.48 0.48 0.50 0.51 0.52 0.55 0.57 0.55 0.58 0.56 0.57 0.59 0.55 0.53 0.55 0.53 0.43 0.37 0.33 0.30 0.28 0.25 0.23 0.21 0.20 0.20 0.19 0.17 0.16 0.15 0.14 0.13 0.12 0.11 0.10 0.10 0.09
Wind_Speed
22 21 20 21 19 19 19 17 15 16 16 15 15 16 16 14 14 13 13 12 11 10 8 7 6 6 6 7 7 7 7 7 7 9 10 12 14 17 19 22 23 25 27 29
22 20 21 21 21 20 19 16 19 15 17 16 12 11 13 15 15 14 13 12 10 9 8 7 6 6 6 6 6 6 6 6 7 9 11 13 16 18 20 22 24 25 27 29
21 19 17 20 22 20 19 19 17 17 17 13 13 12 13 15 15 14 13 12 11 10 8 8 8 7 7 6 6 5 6 7 8 10 12 14 16 18 20 22 24 26 28 30
20 17 21 22 18 20 21 20 20 18 17 16 15 14 14 15 16 15 14 12 11 10 9 9 8 8 7 7 6 6 6 7 9 11 13 15 17 18 20 22 24 26 28 30
20 22 22 19 19 17 17 21 20 22 17 16 14 13 14 16 17 17 15 14 12 11 10 10 9 9 8 7 7 6 7 8 10 12 14 15 16 18 20 23 25 27 28 30
20 22 24 24 22 19 16 20 16 18 18 17 16 14 16 16 16 17 16 15 13 12 12 11 10 10 8 8 7 8 8 10 11 13 14 15 17 18 21 23 25 27 29 31
25 25 24 22 19 18 17 19 14 16 18 17 18 17 15 14 15 17 17 16 15 14 13 12 11 10 9 8 8 9 9 11 12 14 15 16 17 19 21 24 26 27 29 31
27 26 28 23 20 21 21 19 17 18 17 17 15 14 14 15 16 17 18 17 17 15 14 13 12 11 10 9 9 9 10 12 13 14 15 16 18 20 22 24 26 28 30 32
32 32 27 24 25 24 22 21 19 18 18 16 16 15 16 16 17 17 18 18 18 17 15 14 13 12 11 10 10 10 11 13 14 15 16 17 18 20 23 25 27 29 31 33
29 33 31 30 26 23 20 19 21 19 19 18 17 17 17 17 17 17 18 19 18 18 16 15 14 13 12 12 11 11 12 14 15 16 17 18 20 22 24 26 27 29 31 33
33 32 29 29 28 27 26 25 22 22 20 19 19 19 19 19 19 18 18 18 19 18 17 16 15 14 13 13 12 13 14 15 16 17 18 19 21 23 24 26 28 30 32 34
28 29 31 31 28 28 26 25 25 24 23 23 21 21 20 20 20 19 19 19 18 18 18 16 15 15 14 14 14 14 14 16 17 18 19 20 22 24 25 27 28 30 32 33
27 28 29 31 29 27 26 27 26 24 25 24 24 22 22 21 20 20 20 20 19 19 18 17 16 15 15 15 15 15 15 16 17 19 20 21 23 24 25 27 29 30 31 33
28 28 31 32 31 28 27 27 26 24 24 23 23 23 22 21 21 21 21 20 19 19 18 17 16 16 16 15 15 16 16 17 18 20 21 22 23 24 26 28 29 30 32 34
32 30 31 30 30 31 27 23 25 25 24 23 24 24 23 23 22 21 21 20 19 19 18 18 17 16 16 16 16 16 17 18 19 20 21 22 23 25 27 28 29 30 32 34
26 28 28 27 28 26 25 24 24 25 25 24 24 24 24 23 22 22 22 22 20 20 19 18 17 16 16 16 16 17 18 19 20 21 21 23 24 25 27 28 29 31 33 34
27 27 27 27 25 23 24 26 26 27 27 26 25 24 24 23 23 23 22 22 21 20 19 18 17 16 17 17 17 18 18 19 20 21 22 23 24 25 27 28 30 31 33 34
35 32 31 29 28 28 28 27 27 27 28 27 26 26 26 25 24 24 23 22 21 20 20 19 18 17 17 18 18 18 19 19 20 21 22 23 24 25 27 29 30 31 33 34
33 33 34 33 30 30 30 31 31 29 29 27 27 27 26 26 25 24 24 23 22 21 20 19 19 18 18 18 18 18 19 20 20 21 22 23 24 26 27 29 30 31 33 34
22 25 26 27 26 28 29 30 33 32 32 32 27 28 27 26 26 25 24 23 22 22 21 20 19 19 18 18 18 19 19 20 20 21 22 23 24 26 27 29 30 32 33 34
17 19 22 24 25 27 28 30 31 33 31 33 31 27 25 26 25 25 23 22 22 22 21 21 20 19 19 19 19 19 19 20 20 21 22 23 24 26 27 29 30 31 33 35
15 17 19 22 23 24 25 29 30 30 33 34 33 30 27 26 25 24 22 22 22 22 21 21 20 20 19 19 19 19 19 20 20 21 22 23 24 25 27 28 30 31 33 35
17 17 18 20 22 24 25 27 29 30 29 32 33 31 30 29 28 25 22 23 22 21 19 19 19 19 18 18 18 19 19 19 20 21 22 22 24 25 26 28 30 31 33 34
18 19 20 20 21 22 24 25 27 29 30 30 32 32 31 29 28 26 24 22 21 20 19 19 19 18 18 18 18 18 18 19 19 20 21 22 23 25 26 28 29 31 33 34
18 20 21 21 21 21 22 24 25 27 30 30 32 32 32 31 30 27 26 24 22 20 19 19 19 18 17 17 17 17 18 18 19 19 20 22 23 24 26 28 29 31 33 35
18 20 21 22 22 21 22 24 25 26 27 30 30 32 32 32 30 29 27 25 23 21 20 19 19 18 17 17 17 17 17 17 18 18 20 21 22 24 26 28 30 32 33 35
18 19 21 22 22 22 23 23 25 25 27 29 29 29 31 31 31 30 27 25 24 22 20 20 19 18 17 17 17 17 16 16 17 18 19 20 22 24 26 28 30 32 34 36
Wind_Direction
246 245 240 241 240 236 241 251 250 265 261 266 258 247 247 246 241 239 242 248 260 261 256 254 250 224 208 210 213 220 234 251 271 286 298 305 310 315 319 322 324 327 328 329
247 242 241 244 242 238 247 253 262 259 266 263 267 254 246 237 232 232 235 244 245 241 239 237 223 204 200 203 210 222 241 260 277 291 303 309 314 318 321 324 326 327 328 329
245 241 240 250 238 241 247 250 249 250 255 259 260 250 239 229 226 226 230 232 232 229 226 220 207 201 201 205 216 236 253 272 287 298 306 312 316 319 323 325 326 327 329 330
241 240 243 246 247 244 244 247 246 256 255 253 259 257 249 236 228 226 224 224 223 221 217 206 204 205 207 218 234 249 267 281 292 302 308 313 317 320 324 325 327 328 330 331
239 240 250 249 240 239 240 253 246 250 251 254 256 257 257 239 230 225 223 219 219 217 208 206 208 213 218 230 245 259 273 286 297 304 309 313 316 321 325 327 327 329 330 332
239 243 241 246 247 243 246 255 253 248 247 247 244 252 254 237 227 221 217 215 215 212 209 212 216 219 227 238 251 266 277 290 300 306 309 312 316 321 325 327 329 330 332 333
236 243 250 247 242 235 240 253 261 253 244 235 247 251 251 227 219 213 212 213 213 211 215 217 218 223 234 246 259 270 282 293 300 306 309 312 317 321 326 328 330 331 333 334
238 239 246 239 241 237 252 257 254 250 243 239 248 245 230 221 213 210 210 211 213 214 217 219 221 228 240 250 259 272 285 295 302 306 309 311 316 321 325 328 330 331 333 334
234 239 244 245 246 246 248 251 249 246 243 245 242 238 224 218 213 213 212 215 214 216 218 221 226 233 241 249 259 273 287 296 302 306 308 310 314 319 323 326 328 330 332 333
240 241 242 244 246 247 244 250 245 244 244 238 235 226 223 220 217 215 215 215 217 217 221 224 229 237 245 249 261 275 287 296 301 305 308 310 314 318 321 324 326 329 331 332
246 242 245 241 243 247 249 248 246 245 245 236 228 228 224 220 218 217 217 218 217 220 223 226 231 238 245 252 263 276 289 296 300 304 307 310 314 318 321 323 325 328 330 331
239 240 239 241 248 250 245 244 245 243 240 235 231 226 224 222 219 218 218 218 219 221 223 228 233 240 247 256 266 277 289 296 300 304 308 311 315 318 322 325 327 328 330 332
237 244 241 243 245 245 246 242 244 243 238 230 230 223 220 220 219 219 219 220 221 221 224 229 235 242 250 259 269 279 288 296 301 306 309 312 315 317 320 324 327 329 331 333
243 249 247 242 241 249 248 243 236 234 231 230 224 220 218 219 219 219 220 220 220 222 226 231 237 244 252 261 271 281 290 296 301 306 309 312 314 317 320 323 325 327 331 332
248 248 244 244 244 243 241 236 229 227 226 226 222 219 218 218 220 221 220 220 221 224 228 233 240 247 254 264 274 283 291 297 302 307 310 312 315 317 320 322 324 327 329 330
245 241 240 236 237 237 230 230 229 226 225 223 222 220 220 220 220 221 220 219 221 227 229 234 242 248 257 267 276 285 292 298 302 307 310 313 315 318 320 323 325 327 328 330
242 239 234 234 233 234 230 229 230 227 225 223 223 220 219 219 220 221 221 222 225 227 231 237 243 250 260 269 277 285 292 298 301 306 310 313 315 318 321 323 325 326 329 330
239 236 234 236 240 240 238 234 231 228 224 223 222 219 220 220 221 221 221 222 225 230 235 240 245 253 263 271 279 285 292 297 301 305 309 313 315 318 321 323 325 326 328 330
234 237 238 239 242 241 238 234 229 227 221 221 219 221 220 223 222 220 220 223 227 231 237 241 246 255 264 272 279 286 292 296 301 305 309 313 315 318 321 324 326 327 329 330
232 235 235 237 240 238 237 234 227 226 224 220 223 218 221 222 220 220 222 226 230 235 235 241 247 256 264 272 279 286 291 295 299 303 308 312 315 317 321 324 326 327 329 331
234 233 236 235 241 242 240 232 227 223 220 218 223 220 221 218 218 216 221 229 233 233 238 243 249 256 264 271 279 285 289 294 298 302 307 311 314 317 321 324 326 328 330 331
236 236 241 239 241 243 238 230 226 223 222 223 222 221 220 218 218 222 231 233 232 234 241 247 251 256 263 271 277 283 289 294 298 302 307 310 314 317 321 324 326 328 330 332
244 242 248 248 246 244 239 230 225 221 221 220 219 220 221 222 222 224 230 231 231 236 242 244 248 254 262 270 276 283 288 294 299 303 307 310 314 318 322 324 327 329 331 332
251 250 251 251 252 246 238 232 226 226 224 221 220 220 220 221 224 227 228 227 229 233 239 244 248 255 263 270 277 284 289 295 299 303 307 311 315 319 322 325 327 330 331 333
260 256 253 254 254 250 240 232 228 226 223 223 220 221 221 223 225 223 223 227 229 234 242 243 249 255 264 271 279 283 289 294 298 303 307 311 316 320 323 326 328 330 331 333
267 260 256 255 254 248 242 232 230 228 225 221 221 221 222 223 221 221 222 227 230 236 240 243 249 255 263 273 279 284 289 294 298 304 308 313 317 321 324 326 328 330 331 333
270 265 258 253 252 248 241 234 230 228 224 220 220 220 220 218 218 218 221 225 230 237 241 244 248 253 263 270 278 284 287 292 298 304 309 314 320 323 325 327 329 331 332 333